Location: Lake Almanor
(40.2485°N, 121.1442°W)
Time: 08:57:46
(UTC-08:00)

STARLINK-1094 - Pass Details

Date: 02 February 2020
Orbit: 348 x 351 km, 53.0° (Epoch: 18 February)

Event Time Altitude Azimuth Distance (km) Brightness Sun altitude
Rises 19:05:53 0° 293° (WNW) 2,161 7.7 -19.7°
Reaches altitude 10° 19:08:24 10° 270° (W) 1,314 6.8 -20.1°
Maximum altitude 19:10:16 16° 230° (SW) 1,031 5.7 -20.5°
Drops below altitude 10° 19:12:08 10° 190° (S) 1,308 5.7 -20.8°
Enters shadow 19:12:33 - 185° (S) 1,422 5.8 -20.9°
